This is the latest recevied weather packets stored in our database for station/object EA1FBN. If no packets are shown the sender has not sent any weather packets the latest 10 day(s).
| Time | Temp. | Humidity | Pressure | Rain* | Wind** | Luminosity | Snow |
|---|---|---|---|---|---|---|---|
| 1777716324 | 13.33° C | 73% | 1017.4 hPa | 0 mm | - | - | - |
| 1777716024 | 13.33° C | 74% | 1017.3 hPa | 0 mm | - | - | - |
| 1777715724 | 13.33° C | 73% | 1017.1 hPa | 0 mm | - | - | - |
| 1777715424 | 13.33° C | 73% | 1016.9 hPa | 0 mm | - | - | - |
| 1777715124 | 13.33° C | 72% | 1017.1 hPa | 0 mm | - | - | - |
| 1777714824 | 12.78° C | 74% | 1017.2 hPa | 0 mm | - | - | - |
| 1777714524 | 13.33° C | 74% | 1017.3 hPa | 0 mm | - | - | - |
| 1777714224 | 14.44° C | 74% | 1017.3 hPa | 0 mm | - | - | - |
| 1777713924 | 15° C | 74% | 1017.1 hPa | 0 mm | - | - | - |
| 1777713624 | 15.56° C | 74% | 1016.8 hPa | 0 mm | - | - | - |
| 1777713324 | 15.56° C | 74% | 1016.6 hPa | 0 mm | - | - | - |
| 1777713024 | 15.56° C | 74% | 1016.6 hPa | 0 mm | - | - | - |
| 1777712724 | 15.56° C | 71% | 1016.7 hPa | 0 mm | - | - | - |
| 1777712424 | 15.56° C | 67% | 1016.8 hPa | 0 mm | - | - | - |
| 1777712124 | 15.56° C | 53% | 1016.8 hPa | 0 mm | - | - | - |
| 1777711824 | 15° C | 40% | 1016.9 hPa | 0 mm | - | - | - |
| 1777711525 | 15° C | 34% | 1017 hPa | 0 mm | - | - | - |
| 1777711225 | 15° C | 32% | 1017 hPa | 0 mm | - | - | - |
| 1777710925 | 15° C | 30% | 1017.1 hPa | 0 mm | - | - | - |
| 1777710625 | 15° C | 30% | 1017.2 hPa | 0 mm | - | - | - |
| 1777710325 | 15° C | 30% | 1017.1 hPa | 0 mm | - | - | - |
| 1777710025 | 15° C | 30% | 1017.1 hPa | 0 mm | - | - | - |
| 1777709725 | 14.44° C | 30% | 1017.4 hPa | 0 mm | - | - | - |
| 1777709425 | 14.44° C | 30% | 1017.4 hPa | 0 mm | - | - | - |
| 1777709125 | 13.89° C | 31% | 1017.3 hPa | 0 mm | - | - | - |
* Rain latest hour (hover to see other rain measurements)
** Current wind speed in m/s (hover to see current wind gust speed)